Location: ???
(36.2780°N, 43.6707°E)
Time: 04:13:25
(UTC+00:00)

Daily predictions for brighter satellites

Satellite Brightness Start Highest point End
(mag) Time Altitude Azimuth Time Altitude Azimuth Time Altitude Azimuth
Cosmos 2333 Rocket 4.2 00:04:12 22° ESE 00:04:47 23° E 00:09:06 10° NE
Cosmos 2098 Rocket 4.5 00:19:46 71° ENE 00:19:46 71° ENE 00:26:46 10° N
ATLAS 2AS CENTAUR R/B 4.4 00:20:41 14° SSE 00:26:28 34° ESE 00:33:28 10° NE
Cosmos 2322 4.4 00:32:19 49° NE 00:32:19 49° NE 00:36:28 10° NNE
H-2A R/B 4.5 00:32:02 10° NE 00:34:51 27° ENE 00:34:51 27° ENE
COSMOS 2455 3.2 00:39:26 60° NNE 00:39:26 60° NNE 00:44:17 10° NNE
Cosmos 2219 Rocket 2.7 00:45:12 46° SE 00:46:15 53° ESE 00:51:41 10° NNE
ADEOS 3.9 00:41:16 10° NNE 00:45:40 61° NE 00:45:40 61° NE
COSMOS 2428 2.9 00:54:01 50° SSE 00:55:21 66° ESE 01:00:59 10° NNE
Cosmos 1709 Rocket 3.8 00:58:23 47° S 01:00:22 86° W 01:06:43 10° N
Cosmos 304 Rocket 4.3 01:03:39 49° SSE 01:03:39 49° SSE 01:07:07 10° SSE
Cosmos 2322 Rocket 4.4 01:07:00 11° NNW 01:07:00 11° NNW 01:07:29 10° NNW
Cosmos 2360 Rocket 3.6 01:18:08 22° NNW 01:18:08 22° NNW 01:20:56 10° N
Cosmos 1842 3.3 01:19:29 76° NE 01:19:29 76° NE 01:23:11 10° N
Aureole 1 Rocket 3.9 01:17:56 16° SSW 01:24:01 75° WNW 01:29:46 10° NNE
Cosmos 1733 3.5 01:24:53 10° N 01:28:44 68° E 01:32:33 10° SSE
IDEFIX/ARIANE 42P 3.0 01:27:19 10° N 01:32:04 40° WNW 01:32:04 40° WNW
COSMOS 2441 4.3 01:28:05 10° N 01:32:58 67° WNW 01:36:28 19° SSW
CZ-4B R/B 3.1 01:30:40 10° NNE 01:34:43 66° E 01:38:32 10° S
MSX 3.8 01:29:27 10° N 01:35:06 62° WNW 01:40:44 10° SSW
Cosmos 2074 Rocket 4.2 01:29:34 10° S 01:35:46 71° E 01:41:59 10° N
SWAS 4.3 01:34:46 41° NW 01:36:05 66° WSW 01:40:21 10° SSE
NOSS 3-4 (A) 3.9 01:30:51 10° SSW 01:36:42 59° ESE 01:42:46 10° NE
NOSS 3-4 (C) 3.9 01:30:56 10° SSW 01:36:47 59° ESE 01:42:52 10° NE
USA 234 3.3 01:33:20 10° SSE 01:39:47 61° SW 01:44:28 20° NW
NOSS 2-2 (D) 4.0 01:41:53 33° NW 01:41:53 33° NW 01:45:00 10° NNE
Cosmos 389 Rocket 4.1 01:39:21 10° SSE 01:42:29 35° E 01:45:39 10° NNE
Meteor 1-22 Rocket 4.0 01:37:21 10° NNW 01:42:37 58° W 01:47:46 10° S
Cosmos 1844 Rocket 2.8 01:38:57 19° NW 01:42:43 46° WSW 01:47:59 10° S
Cosmos 2181 Rocket 3.9 01:37:27 10° NNW 01:43:46 67° W 01:49:57 10° S
Meteor 1-21 4.1 01:38:58 10° SSW 01:44:31 73° W 01:50:08 10° N
ERBS 2.2 01:44:08 52° SW 01:44:52 87° SE 01:48:15 10° NE
Cosmos 2333 Rocket 2.5 01:46:17 28° WSW 01:48:41 43° WNW 01:54:06 10° N
GPS 2-05 Rocket1 2.6 01:50:13 50° S 01:50:13 50° S 01:52:52 10° ESE
CZ-2C R/B 2.5 01:45:11 10° N 01:50:20 66° WNW 01:55:26 10° SSW
Cosmos 1140 Rocket 4.4 01:50:55 10° S 01:55:56 51° ESE 02:00:57 10° NNE
Cosmos 2278 Rocket 3.1 01:51:25 10° N 01:56:56 50° ENE 02:02:25 10° SE
PAYLOAD A 4.2 01:53:12 10° N 01:57:44 42° WNW 02:02:23 10° SW
NOSS 0 Rocket 3.8 01:51:45 10° SSW 01:57:53 78° WNW 02:04:06 10° NNE
Okean O Rocket 3.7 01:54:31 10° NE 01:58:25 30° E 02:02:17 10° SSE
BREEZE-M DEB (TANK) 3.6 01:50:49 12° SW 01:58:59 79° SSE 02:02:16 10° ENE
Cosmos 1992 Rocket 4.1 01:54:29 10° NNW 01:59:32 52° WSW 02:04:32 10° S
Cosmos 1844 4.1 01:54:44 10° NW 02:00:10 42° WSW 02:05:32 10° S
Milstar 3 4.5 01:58:56 10° SSW 02:04:21 25° SSE 02:10:10 10° ESE
Cosmos 1953 3.3 02:03:22 10° N 02:07:19 51° E 02:11:13 10° SSE
Cosmos 614 Rocket 3.9 02:02:43 10° SSW 02:07:55 80° WNW 02:13:10 10° NNE
ATLAS 3B R/B 4.0 02:02:05 10° NNW 02:08:20 39° NE 02:14:42 10° ESE
PSLV R/B 3.5 02:05:55 10° N 02:09:38 78° WNW 02:13:19 10° SSW
H-2A R/B 3.8 02:07:59 10° NNW 02:10:58 20° WNW 02:11:24 19° WNW
Cosmos 1758 3.2 02:08:25 10° NNW 02:12:24 70° W 02:16:24 10° S
SJ-12 4.4 02:09:03 10° NNE 02:13:07 63° E 02:17:10 10° S
Milstar 3 Cent rocket 4.0 02:12:06 10° SSW 02:15:34 18° SSE 02:18:47 10° ESE
Cosmos 1025 Rocket 4.0 02:13:18 10° SW 02:16:50 25° WNW 02:20:23 10° NNW
ATLAS 2AS CENTAUR R/B 3.2 02:09:27 10° SW 02:17:10 54° NW 02:25:04 10° NNE
IUS-9 SRM-1 4.0 02:15:58 10° SSW 02:18:00 19° SSE 02:22:17 10° ESE
RESURS DK-1 4.2 02:16:27 10° S 02:20:12 34° ESE 02:23:57 10° NE
Cosmos 2228 3.7 02:18:59 10° N 02:23:11 56° E 02:27:20 10° SSE
CENTAUR R/B 3.8 02:16:14 10° NNW 02:24:20 60° NE 02:32:55 10° SE
COSMOS 2455 4.5 02:22:38 12° WNW 02:25:00 15° NW 02:28:18 10° NNW
USA 238 DEB 3.9 02:18:51 10° NW 02:26:00 62° WSW 02:33:20 10° SSE
USA 238 3.9 02:18:58 10° NW 02:26:07 63° WSW 02:33:25 10° SSE
Centaur D AC-28 3.6 02:22:26 10° SW 02:26:08 39° SSE 02:36:03 10° E
Cosmos 676 Rocket 4.2 02:21:36 10° SSW 02:26:54 80° ESE 02:32:11 10° NNE
PAYLOAD B 4.3 02:22:39 10° NNE 02:28:15 88° ESE 02:33:46 10° SSW
ALOS 2.7 02:24:23 10° NNE 02:29:02 69° ESE 02:33:40 10° S
Cosmos 2219 Rocket 3.5 02:27:00 12° W 02:30:32 20° NW 02:34:32 10° N
SKYMED 2 3.5 02:26:48 10° S 02:31:08 83° WSW 02:35:30 10° NNW
CZ-4B DEB 4.2 02:25:56 10° N 02:31:25 77° WNW 02:36:50 10° SSW
Cosmos 1023 Rocket 4.4 02:26:47 10° SSW 02:31:58 68° WNW 02:37:07 10° NNE
Cosmos 2237 Rocket 2.5 02:28:27 10° SW 02:33:54 48° WNW 02:39:24 10° N
GP-B 3.1 02:29:31 10° S 02:33:57 80° W 02:38:24 10° N
Centaur D AC-29 3.8 02:15:59 13° W 02:34:02 35° SW 02:39:09 10° SSE
Cosmos 2154 Rocket 4.0 02:27:55 10° SSW 02:34:02 66° W 02:40:13 10° N
Cosmos 921 Rocket 3.3 02:31:14 10° NNW 02:35:18 42° W 02:39:16 10° S
Cosmos 1190 Rocket 4.3 02:32:40 10° SW 02:37:46 46° WNW 02:42:52 10° N
Meteor 1-4 Rocket 2.7 02:36:11 10° SSW 02:39:36 45° W 02:42:59 10° N
COSMOS 2428 4.2 02:36:29 10° W 02:40:06 17° NW 02:43:43 10° NNW
Cosmos 1892 Rocket 3.5 02:38:10 10° SSW 02:42:37 75° W 02:47:03 10° N
Cosmos 407 Rocket 4.0 02:38:13 10° SW 02:42:56 35° WNW 02:47:38 10° N
Meteor 1-31 Rocket 4.4 02:42:26 10° NNW 02:44:35 15° WNW 02:46:44 10° WSW
Cosmos 292 Rocket 4.1 02:40:12 10° NNW 02:44:47 46° WSW 02:49:21 10° S
Cosmos 1980 4.4 02:45:09 10° SW 02:50:11 33° WNW 02:55:15 10° N
SeaSat 1 2.5 02:45:28 10° NNE 02:50:25 89° ESE 02:55:21 10° SSW
Cosmos 44 3.2 02:46:30 10° NNW 02:50:51 76° ENE 02:55:08 10° SSE
In-Cosmos 22 4.1 02:46:42 10° SSW 02:51:57 68° W 02:57:19 10° N
Cosmos 2341 Rocket 4.0 02:46:54 10° S 02:53:10 81° W 02:59:26 10° N
NOSS 3-2 (A) 4.4 02:46:06 10° NW 02:53:40 51° WSW 03:01:49 10° S
